User: anonymous
Location: Unspecified
(0.0000°N, 0.0000°E)
Time: 12:11:05
(UTC+02:00)
Language:

Cosmos 773 Rocket - Orbit

View from above orbital plane
View from above orbital plane
View from above satellite
View from above satellite

Ground track
Ground track

The orbit data is extracted from the following two-line orbital elements,

1 08344U 75094B   14241.43607285  .00000185  00000-0  68638-4 0  5446
2 08344 074.0579 209.8796 0022051 004.2524 143.6826 14.38777305 38580
Epoch (UTC): 29 August 2014 10:27:56
Eccentricity: 0.0022051
inclination: 74.0579°
perigee height: 747 km
apogee height: 778 km
right ascension of ascending node: 209.8796°
argument of perigee: 4.2524°
revolutions per day: 14.38777305
mean anomaly at epoch: 143.6826°
orbit number at epoch: 3858

The dashed part of the orbit path shows where the satellite is in the earth's shadow,  

DLR